DECAYED
Showing default

YOTSUBA-KULOVER, 65941 (Decayed)

Orbit data source: Space-Track

YOTSUBA-KULOVER, 65941 was a Japanese payload satellite in LEO that was delivered to the ISS. Payload-class satellites include a variety of spacecraft equipped with specific instruments for various scientific and technological missions. These include communications satellites like Starlink; space stations such as the ISS; scientific satellites like the Hubble; Earth observation satellites from companies like Planet Labs, Umbra, and HawkEye 360; GPS; miniature CubeSats for education and research; and military/defense satellites.

Not visible in the next 10 days
Identifier
65941, 1998-067XN
Orbit
Decayed
Country
Flag of JPJP / JPN
Related business
Manufacturer
Kyutech
Mission
Decayed Amateur Technology
Bus & Motor
CUBESAT 2U, Unknown motor
Mass
1.8 kg wet, 1.8 kg dry
Launch date (UTC)
1998-11-20 (28 years ago)
Launch vehicle
FALCON 9
Launch site
Tyuratam Missile And Space Complex (TTMTR)
Object type
Payload
Rocket body
Debris
Shape & HBR
Box + 1 Pan, 0.1 m
Radar Cross Section
0.028 m²

Expand to show TLE details & history
Last TLE update: 1 month ago

TLE from 1 month ago
0 YOTSUBA-KULOVER
1 65941U 98067XN  26106.72901255  .06739310  12393-4  74116-3 0  9994
2 65941  51.6034 215.6287 0009820 317.4833  42.5431 16.36262631 29573
Epoch: 2026-04-16T17:29Z
TLE epoch observation values (Epoch: 2026-04-16T17:29:46.684Z)
Latitude
0.00003°
Longitude
108.31183°
Altitude
171.789 km
Speed
7.807 km/s
True Right ascension
14h 22m 30s
True Declination
0° 00' 00"
Sunlit
Object was in full shadow at epoch
Visualization orbit readout
Latitude
Unknown
Longitude
Unknown
Altitude
Unknown
Speed
Unknown
Apparent Right ascension
Unknown
Apparent Declination
Unknown
Sunlit
N/A
Visualization observer readout
Local Sidereal Time
16:50:49
Azimuth
Unknown
Elevation
Unknown
Doppler factor
Unknown
Orbital elements
Apogee altitude
182.732 km
Perigee altitude
169.859 km
Semi-major axis
6,554.433 km
Eccentricity
0.00098
Inclination
51.6034°
RAAN
215.6287°
Arg. of periapsis
317.4833°
True anomaly
42.61925°
Mean anomaly
42.5431°
Eccentric anomaly
42.58117°
Mean motion
4.09016 °/min
Orbital period
88.02 mins
BSTAR
0.00074116
Loading maneuver chart data...
Computing Atmospheric mass density...

Documentation

Showing up to 5 results
|